Location: ?????
(37.7324°N, 23.9257°E)
Time: 07:57:01
(UTC+00:00)

CZ-4B R/B - Pass Details

Date: 29 November 2020
Orbit: 485 x 652 km, 97.9° (Epoch: 17 January)

Event Time Altitude Azimuth Distance (km) Brightness Sun altitude
Rises 03:36:32 0° 12° (NNE) 2,978 6.6 -19.9°
Reaches altitude 10° 03:38:47 10° 12° (NNE) 2,056 5.7 -19.5°
Maximum altitude 03:43:17 90° 330° (NNW) 642 3.0 -18.6°
Drops below altitude 10° 03:47:38 10° 194° (SSW) 1,979 5.6 -17.8°
Sets 03:49:46 0° 194° (SSW) 2,857 6.5 -17.3°
